Regional Weather Roundup
Issued by NWS

Home | Current Version | Previous Version | Text Only | Print | Product List | Glossary On
Versions: 1 2 3 4 5 6 7 8 9 10 11 12 13 14 15 16 17 18 19 20 21 22 23 24 25 26 27 28 29 30 31 32 33 34 35 36 37 38 39 40 41 42 43 44 45 46 47 48 49 50
000
ASUS45 KABQ 201010
RWRNM
WEATHER ROUNDUP FOR NEW MEXICO
NATIONAL WEATHER SERVICE ALBUQUERQUE NM
400 AM MDT MON OCT 20 2014

NOTE: "FAIR" MEANS FEW OR NO CLOUDS BELOW 12,000 FEET AGL WITH NO
       SIGNIFICANT WEATHER OR OBSTRUCTIONS TO VISION.

      THIS PRODUCT IS RELEASED AS TWO VERSIONS.  ONE VERSION NEAR
      THE TOP OF THE HOUR CONTAINING PRELIMINARY DATA FROM ALBUQUERQUE
      AND OTHER STATIONS.  A FINAL VERSION WITH ADDITIONAL DATA IS
      ISSUED ABOUT 10 MINUTES AFTER THE HOUR.

NMZ501-503-504-510>518-201100-
NORTHWEST PLATEAU/NORTHCENTRAL MOUNTAINS

CITY           SKY/WX    TMP DP  RH WIND       PRES   REMARKS
FARMINGTON     CLEAR     45  42  89 E6        30.15F
LOS ALAMOS     MOCLDY    49  38  67 CALM      30.25S
SANTA FE       CLOUDY    49  39  68 SE5       30.22R
TAOS           MOCLDY    39  34  81 N8        30.25S WCI  34
ANGEL FIRE     FOG       33  32  96 CALM      30.34S VSB 1/4

$$
NMZ402-403-502-505>509-201100-
WESTCENTRAL MOUNTAINS/SOUTHWEST MOUNTAINS

CITY           SKY/WX    TMP DP  RH WIND       PRES   REMARKS
GALLUP         CLEAR     39  37  92 E3        30.19F
GRANTS         PTCLDY    34  32  93 NW5       30.23S WCI  30
SILVER CITY    PTCLDY    52  46  82 E6        30.14F

$$
NMZ407-409-411-412-201100-
SOUTHERN DESERTS

CITY           SKY/WX    TMP DP  RH WIND       PRES   REMARKS
LORDSBURG      FAIR      52  48  87 MISG      30.06S
DEMING         CLEAR     53  51  93 E5        30.09F
LAS CRUCES     MOCLDY    56  53  90 NW7       30.09F
HOLLOMAN AFB   MOCLDY    56  56 100 NW10      30.09F
T OR C         CLOUDY    54  51  90 NE3       30.14F

$$
NMZ519>523-201100-
CENTRAL VALLEYS/CENTRAL HIGHLANDS

CITY           SKY/WX    TMP DP  RH WIND       PRES   REMARKS
ALBUQUERQUE    PTCLDY    50  42  74 W6        30.18S
DOUBLE EAGLE   MOCLDY    44  38  77 CALM      30.19F
MORIARTY ARPT  CLOUDY    39  35  87 NW5       30.23R
CLINES CORNERS PTCLDY    47  42  83 W3        30.22F
BELEN          NOT AVBL
SOCORRO        FAIR      51  50  96 S3        30.16R

$$
NMZ524>526-539-540-201100-
SOUTHCENTRAL MOUNTAINS

CITY           SKY/WX    TMP DP  RH WIND       PRES   REMARKS
RUIDOSO        NOT AVBL

$$
NMZ527>531-201100-
NORTHEAST HIGHLANDS/NORTHEAST PLAINS

CITY           SKY/WX    TMP DP  RH WIND       PRES   REMARKS
LAS VEGAS      PTCLDY    44  38  79 SW5       30.24S
RATON          PTCLDY    42  35  76 NE10      30.20S
CLAYTON        CLEAR     49  42  77 SW8       30.15R

$$
NMZ532>537-201100-
EASTCENTRAL PLAINS

CITY           SKY/WX    TMP DP  RH WIND       PRES   REMARKS
TUCUMCARI      PTCLDY    53  48  83 W7        30.10S
CANNON AFB     CLEAR     55  54  94 NW5       30.12F
CLOVIS AIRPORT CLEAR     52  48  87 W7        30.14S

$$
NMZ028-029-538-201100-
SOUTHEAST PLAINS

CITY           SKY/WX    TMP DP  RH WIND       PRES   REMARKS
ROSWELL        CLOUDY    55  50  83 N3        30.09F
CARLSBAD       CLOUDY    62  58  86 N6        30.06S
HOBBS          MOCLDY    54  54 100 CALM      30.10F


$$


USA.gov is the U.S. government's official web portal to all federal, state and local government web resources and services.